sat.trackr.live / text

‹ back to catalog

STARLINK-3540

NORAD 51719 · 2022-016F

PAYLOAD ACTIVE UNKNOWN

§ Identity

Operator
Country
US
Launch date
2022-02-21
Launch site
AFETR
Launch vehicle
Mass (kg)
RCS (m²)

Purposes: comms

External: N2YO · Heavens-Above · Gunter

§ Orbital elements

Epoch: 2026-09-20T00:20:52.931328Z

Period
93.79 min
Inclination
53.1616°
Eccentricity
0.0001449
Mean motion
15.35395426 rev/d
Perigee alt
458.8 km
Apogee alt
460.7 km
Semi-major
6,837.9 km
B*
4.9891e-7
RAAN
166.2932°
Arg perigee
79.6027°
Mean anomaly
280.5139°
Rev number
25,290

§ Raw data

STARLINK-35401 51719U 22016F   26263.01450152 -.00000363  00000+0  49891-6 0  99902 51719  53.1616 166.2932 0001449  79.6027 280.5139 15.35395426252904

JSON: /api/v1/satellites/51719 · /tle

For live sub-satellite position, see the globe view (requires WebGL).

§ Visibility from observer

Set your observer location to see the next 7 days of passes ≥ 10°. The values pass through the URL so the page stays shareable.

No JS? Fill the form by hand. The geolocation button needs JavaScript.